GW6773 Weather Reports


Display with metric or nautical units.
time (UTC)temp
F
wind
direction
speed
MPH
gust
MPH
rain 1hr
in
rain 24hr
in
rain mn
in
humidity
%
barometer
mb
20260506214756 81 2 4.0 8.0 0.00 0.00 0.00 64 1025.4
20260506214253 82 28 5.0 7.0 0.00 0.00 0.00 63 1025.6
20260506213752 82 79 1.0 6.0 0.00 0.00 0.00 63 1025.4
20260506213248 83 32 2.0 6.0 0.00 0.00 0.00 64 1025.5
20260506212746 82 16 4.0 6.0 0.00 0.00 0.00 65 1025.3
20260506212241 83 33 4.0 8.0 0.00 0.00 0.00 64 1025.3
20260506211737 83 59 2.0 6.0 0.00 0.00 0.00 63 1025.4
20260506211234 83 304 3.0 6.0 0.00 0.00 0.00 64 1025.3
20260506210731 83 43 3.0 6.0 0.00 0.00 0.00 64 1025.4
20260506210227 84 36 2.0 8.0 0.00 0.00 0.00 63 1025.4
20260506205724 86 39 1.0 6.0 0.00 0.00 0.00 61 1025.5
20260506205220 86 86 2.0 4.0 0.00 0.00 0.00 61 1025.5
20260506204717 87 332 2.0 6.0 0.00 0.00 0.00 62 1025.4
20260506204214 86 79 4.0 4.0 0.00 0.00 0.00 63 1025.3
20260506203712 86 62 3.0 8.0 0.00 0.00 0.00 64 1025.6
20260506203209 87 346 2.0 6.0 0.00 0.00 0.00 63 1025.6
20260506202707 87 54 2.0 9.0 0.00 0.00 0.00 63 1025.7
20260506202203 87 168 2.0 4.0 0.00 0.00 0.00 64 1025.7
20260506201700 88 340 2.0 4.0 0.00 0.00 0.00 62 1025.6
20260506201156 88 56 2.0 4.0 0.00 0.00 0.00 62 1025.7
20260506200653 87 182 3.0 8.0 0.00 0.00 0.00 62 1025.6
20260506200149 87 53 1.0 7.0 0.00 0.00 0.00 63 1025.6
20260506195646 87 13 2.0 3.0 0.00 0.00 0.00 63 1025.6
20260506195143 86 58 1.0 6.0 0.00 0.00 0.00 64 1025.6
20260506194640 86 90 1.0 6.0 0.00 0.00 0.00 65 1025.6
20260506194136 85 33 2.0 6.0 0.00 0.00 0.00 65 1025.7
20260506193634 86 29 4.0 4.0 0.00 0.00 0.00 64 1025.7
20260506193131 85 121 2.0 4.0 0.00 0.00 0.00 66 1025.7
20260506192628 85 49 4.0 6.0 0.00 0.00 0.00 65 1025.7
20260506192124 85 67 1.0 2.0 0.00 0.00 0.00 67 1025.7
20260506191621 86 22 3.0 4.0 0.00 0.00 0.00 63 1025.9
20260506191117 86 54 2.0 3.0 0.00 0.00 0.00 64 1025.7
20260506190615 85 38 2.0 3.0 0.00 0.00 0.00 66 1025.8
20260506190111 84 58 3.0 4.0 0.00 0.00 0.00 67 1026.0
20260506185608 83 59 2.0 4.0 0.00 0.00 0.00 67 1026.0
20260506185104 84 358 2.0 3.0 0.00 0.00 0.00 67 1025.9
20260506184602 84 80 0.0 3.0 0.00 0.00 0.00 67 1026.1
20260506184059 84 36 2.0 4.0 0.00 0.00 0.00 66 1026.0
20260506183555 84 19 2.0 3.0 0.00 0.00 0.00 67 1026.2
20260506183052 83 88 2.0 7.0 0.00 0.00 0.00 68 1026.1
20260506182549 83 64 1.0 3.0 0.00 0.00 0.00 69 1026.0
20260506182046 83 59 3.0 6.0 0.00 0.00 0.00 69 1026.0
20260506181544 82 128 3.0 4.0 0.00 0.00 0.00 71 1026.1
20260506181041 81 109 2.0 6.0 0.00 0.00 0.00 72 1026.0
20260506180537 82 101 2.0 4.0 0.00 0.00 0.00 71 1026.2
20260506180034 85 72 0.0 3.0 0.00 0.00 0.00 67 1026.2
20260506175531 85 58 0.0 2.0 0.00 0.00 0.00 68 1026.3
20260506175027 85 106 2.0 3.0 0.00 0.00 0.00 67 1026.3
20260506174526 85 79 2.0 3.0 0.00 0.00 0.00 69 1026.3
20260506174021 85 32 2.0 4.0 0.00 0.00 0.00 69 1026.5
20260506173519 87 91 4.0 6.0 0.00 0.00 0.00 67 1026.6
20260506173016 87 39 2.0 4.0 0.00 0.00 0.00 67 1026.5
20260506172514 86 38 1.0 6.0 0.00 0.00 0.00 66 1026.7
20260506172009 85 138 2.0 4.0 0.00 0.00 0.00 69 1026.5
20260506171508 84 63 1.0 2.0 0.00 0.00 0.00 72 1026.5
20260506171005 83 55 1.0 4.0 0.00 0.00 0.00 75 1026.6
20260506170502 82 51 1.0 1.0 0.00 0.00 0.00 76 1026.7
20260506165959 83 105 2.0 3.0 0.00 0.00 0.00 75 1026.6
20260506165458 82 105 2.0 3.0 0.00 0.00 0.00 77 1026.5
20260506164953 82 34 3.0 4.0 0.00 0.00 0.00 77 1026.7
20260506164450 81 65 0.0 3.0 0.00 0.00 0.00 79 1026.7
20260506163948 81 68 1.0 4.0 0.00 0.00 0.00 78 1027.0
20260506163443 81 62 2.0 4.0 0.00 0.00 0.00 80 1027.0
20260506162938 80 36 1.0 3.0 0.00 0.00 0.00 81 1026.9
20260506162436 78 95 1.0 3.0 0.00 0.00 0.00 85 1027.1
20260506161933 78 43 2.0 3.0 0.00 0.00 0.00 85 1027.1
20260506161431 78 48 2.0 3.0 0.00 0.00 0.00 86 1027.1
20260506160928 77 67 1.0 2.0 0.00 0.00 0.00 87 1027.2
20260506160426 77 55 1.0 1.0 0.00 0.00 0.00 88 1026.9
20260506155923 77 34 1.0 2.0 0.00 0.00 0.00 88 1026.9
20260506155421 77 59 0.0 2.0 0.00 0.00 0.00 88 1026.8
20260506153542 77 58 1.0 2.0 0.00 0.00 0.00 89 1026.5
20260506153039 76 58 0.0 1.0 0.00 0.00 0.00 89 1026.3
20260506152536 76 51 0.0 1.0 0.00 0.00 0.00 89 1026.1
20260506152034 76 61 1.0 2.0 0.00 0.00 0.00 90 1026.1
20260506151532 76 42 0.0 1.0 0.00 0.00 0.00 90 1025.9
20260506151029 76 60 0.0 0.0 0.00 0.00 0.00 90 1026.0
20260506150525 76 88 1.0 2.0 0.00 0.00 0.00 90 1026.2
20260506150022 76 58 0.0 1.0 0.00 0.00 0.00 91 1025.9
20260506145519 75 38 1.0 2.0 0.00 0.00 0.00 91 1025.9
20260506145017 75 77 0.0 2.0 0.00 0.00 0.00 91 1025.9
20260506144513 75 60 0.0 0.0 0.00 0.00 0.00 91 1025.8
20260506144011 75 55 0.0 1.0 0.00 0.00 0.00 91 1025.9
20260506143508 75 36 1.0 2.0 0.00 0.00 0.00 91 1025.9
20260506143007 75 55 1.0 1.0 0.00 0.00 0.00 91 1025.9
20260506142504 75 58 0.0 1.0 0.00 0.00 0.00 91 1025.9
20260506142002 75 80 1.0 1.0 0.00 0.00 0.00 90 1025.6
20260506141459 75 76 0.0 1.0 0.00 0.00 0.00 90 1025.4
20260506140958 75 71 0.0 1.0 0.00 0.00 0.00 91 1025.3
20260506140454 75 73 2.0 3.0 0.00 0.00 0.00 90 1025.4
20260506135951 75 40 1.0 1.0 0.00 0.00 0.00 90 1025.4
20260506135448 75 55 0.0 1.0 0.00 0.00 0.00 90 1025.2
20260506134944 75 67 1.0 3.0 0.00 0.00 0.00 90 1025.1
20260506134440 75 61 0.0 2.0 0.00 0.00 0.00 89 1024.8
20260506133937 75 75 2.0 4.0 0.00 0.00 0.00 89 1024.8
20260506133434 75 69 1.0 2.0 0.00 0.00 0.00 89 1024.8
20260506132931 75 138 1.0 2.0 0.00 0.00 0.00 89 1024.6
20260506132428 76 77 2.0 3.0 0.00 0.00 0.00 89 1024.8
20260506131926 76 95 0.0 2.0 0.00 0.00 0.00 88 1024.7
20260506131422 76 3 1.0 1.0 0.00 0.00 0.00 88 1024.8
20260506130919 76 80 1.0 1.0 0.00 0.00 0.00 89 1024.7
20260506130415 76 71 0.0 1.0 0.00 0.00 0.00 89 1024.6
20260506125914 75 93 1.0 3.0 0.00 0.00 0.00 89 1024.6
20260506125412 75 81 1.0 3.0 0.00 0.00 0.00 90 1024.6
20260506124910 75 354 3.0 4.0 0.00 0.00 0.00 89 1024.6
20260506124407 75 60 1.0 2.0 0.00 0.00 0.00 90 1024.7
20260506123904 75 45 1.0 2.0 0.00 0.00 0.00 90 1024.8
20260506123402 75 76 0.0 0.0 0.00 0.00 0.00 90 1024.8
20260506122859 75 79 0.0 2.0 0.00 0.00 0.00 90 1024.6
20260506122356 75 182 1.0 2.0 0.00 0.00 0.00 90 1024.7
20260506121855 75 84 0.0 1.0 0.00 0.00 0.00 90 1024.5
20260506121351 75 208 0.0 2.0 0.00 0.00 0.00 90 1024.6
20260506120848 75 136 0.0 1.0 0.00 0.00 0.00 90 1024.5
20260506120346 75 40 1.0 1.0 0.00 0.00 0.00 90 1024.4
20260506115843 75 150 1.0 2.0 0.00 0.00 0.00 90 1024.4
20260506115341 75 67 0.0 1.0 0.00 0.00 0.00 90 1024.4
20260506114839 75 62 0.0 3.0 0.00 0.00 0.00 90 1024.3
20260506114336 75 207 2.0 2.0 0.00 0.00 0.00 90 1024.4
20260506113835 75 180 1.0 2.0 0.00 0.00 0.00 90 1024.3
20260506113332 75 95 1.0 2.0 0.00 0.00 0.00 90 1024.3
20260506112828 75 65 0.0 2.0 0.00 0.00 0.00 90 1024.3
20260506112326 75 78 1.0 2.0 0.00 0.00 0.00 90 1024.3
20260506111823 75 81 0.0 1.0 0.00 0.00 0.00 90 1024.3
20260506111321 75 44 0.0 1.0 0.00 0.00 0.00 90 1024.3
20260506110818 75 87 0.0 2.0 0.00 0.00 0.00 90 1024.3
20260506110315 75 84 0.0 0.0 0.00 0.00 0.00 90 1024.1
20260506105812 75 49 0.0 1.0 0.00 0.00 0.00 90 1024.0
20260506105309 75 64 1.0 2.0 0.00 0.00 0.00 90 1024.0
20260506104806 75 154 1.0 2.0 0.00 0.00 0.00 89 1024.1
20260506104304 75 44 1.0 1.0 0.00 0.00 0.00 89 1024.1
20260506103801 75 58 0.0 2.0 0.00 0.00 0.00 89 1024.0
20260506103259 75 72 1.0 2.0 0.00 0.00 0.00 89 1024.0
20260506102756 75 74 0.0 2.0 0.00 0.00 0.00 89 1024.3
20260506102254 75 83 1.0 1.0 0.00 0.00 0.00 89 1024.3
20260506101751 75 72 0.0 1.0 0.00 0.00 0.00 89 1024.0
20260506101247 75 185 0.0 2.0 0.00 0.00 0.00 89 1023.9
20260506100745 75 62 0.0 2.0 0.00 0.00 0.00 89 1024.0
20260506100243 75 58 0.0 0.0 0.00 0.00 0.00 89 1024.0
20260506095741 75 52 0.0 3.0 0.00 0.00 0.00 89 1023.9
20260506095238 75 148 2.0 4.0 0.00 0.00 0.00 89 1023.9
20260506094734 75 64 0.0 3.0 0.00 0.00 0.00 89 1023.8
20260506094233 75 124 1.0 2.0 0.00 0.00 0.00 89 1023.8
20260506093731 75 160 1.0 2.0 0.00 0.00 0.00 88 1023.7
20260506093228 75 156 0.0 3.0 0.00 0.00 0.00 88 1023.7
20260506092726 76 49 0.0 2.0 0.00 0.00 0.00 88 1023.6
20260506092223 76 94 0.0 2.0 0.00 0.00 0.00 88 1023.5
20260506091720 76 13 1.0 2.0 0.00 0.00 0.00 88 1023.4
20260506091218 76 203 1.0 4.0 0.00 0.00 0.00 88 1023.5
20260506090715 76 269 2.0 4.0 0.00 0.00 0.00 87 1023.7
20260506090212 76 132 1.0 2.0 0.00 0.00 0.00 87 1023.7
20260506085709 76 99 1.0 2.0 0.00 0.00 0.00 87 1023.9
20260506085205 76 201 1.0 3.0 0.00 0.00 0.00 87 1023.9
20260506084702 76 93 0.0 1.0 0.00 0.00 0.00 87 1023.9
20260506084158 76 195 1.0 3.0 0.00 0.00 0.00 87 1023.9
20260506083655 76 30 2.0 2.0 0.00 0.00 0.00 87 1023.8
20260506083153 76 101 1.0 2.0 0.00 0.00 0.00 87 1023.8
20260506082650 76 51 0.0 1.0 0.00 0.00 0.00 86 1023.8
20260506082150 76 71 1.0 2.0 0.00 0.00 0.00 86 1023.6
20260506081649 76 78 0.0 2.0 0.00 0.00 0.00 86 1023.8
20260506081146 76 234 1.0 3.0 0.00 0.00 0.00 86 1023.6
20260506080644 76 103 1.0 3.0 0.00 0.00 0.00 86 1023.6
20260506080140 76 130 1.0 2.0 0.00 0.00 0.00 86 1023.9
20260506073124 76 91 2.0 2.0 0.00 0.00 0.00 86 1023.9
20260506072621 76 129 1.0 1.0 0.00 0.00 0.00 86 1024.1
20260506072119 76 257 2.0 3.0 0.00 0.00 0.00 86 1024.1
20260506071616 76 339 3.0 6.0 0.00 0.00 0.00 86 1024.0
20260506071114 76 48 0.0 2.0 0.00 0.00 0.00 86 1024.3
20260506070611 76 183 0.0 1.0 0.00 0.00 0.00 86 1024.1
20260506070108 76 140 1.0 6.0 0.00 0.00 0.00 86 1024.4
20260506062045 77 114 2.0 3.0 0.00 0.00 0.00 85 1024.7
20260506061541 77 112 1.0 3.0 0.00 0.00 0.00 85 1024.6
20260506061038 77 57 0.0 2.0 0.00 0.00 0.00 85 1024.5
20260506060537 77 205 2.0 7.0 0.00 0.00 0.00 85 1024.5
20260506051006 77 133 2.0 2.0 0.00 0.00 0.00 84 1024.5
20260506050503 77 98 1.0 3.0 0.00 0.00 0.00 84 1024.3
20260506044953 77 31 2.0 3.0 0.00 0.00 0.00 84 1024.5
20260506044452 77 148 0.0 6.0 0.00 0.00 0.00 84 1024.4
20260506043948 77 177 1.0 3.0 0.00 0.00 0.00 84 1024.6
20260506043445 77 74 1.0 4.0 0.00 0.00 0.00 83 1024.5
20260506042943 77 160 2.0 2.0 0.00 0.00 0.00 83 1024.5
20260506042443 78 124 2.0 3.0 0.00 0.00 0.00 83 1024.4
20260506041940 78 359 1.0 2.0 0.00 0.00 0.00 83 1024.4
20260506041438 78 144 3.0 4.0 0.00 0.00 0.00 83 1024.3
20260506040935 78 95 3.0 4.0 0.00 0.00 0.00 83 1024.3
20260506040432 78 142 2.0 3.0 0.00 0.00 0.00 83 1024.0
20260506035928 78 49 2.0 4.0 0.00 0.00 0.00 83 1023.9
20260506035426 78 345 1.0 2.0 0.00 0.00 0.00 83 1024.1
20260506034922 78 83 2.0 6.0 0.00 0.00 0.00 83 1024.1
20260506034420 78 110 2.0 3.0 0.00 0.00 0.00 83 1024.0
20260506033916 78 11 2.0 2.0 0.00 0.00 0.00 83 1023.8
20260506033414 78 75 1.0 2.0 0.00 0.00 0.00 83 1023.6
20260506032910 78 71 0.0 3.0 0.00 0.00 0.00 83 1023.6
20260506032408 78 156 1.0 4.0 0.00 0.00 0.00 83 1023.6
20260506031904 78 139 1.0 6.0 0.00 0.00 0.00 83 1023.5
20260506031401 78 164 2.0 3.0 0.00 0.00 0.00 82 1023.5
20260506030859 78 146 1.0 7.0 0.00 0.00 0.00 82 1023.4
20260506030357 78 184 1.0 3.0 0.00 0.00 0.00 82 1023.3
20260506025853 79 76 1.0 2.0 0.00 0.00 0.00 81 1023.2
20260506025350 79 78 1.0 2.0 0.00 0.00 0.00 81 1023.2
20260506024847 79 48 2.0 2.0 0.00 0.00 0.00 81 1023.1
20260506024344 79 49 2.0 3.0 0.00 0.00 0.00 81 1023.0
20260506023840 79 21 1.0 2.0 0.00 0.00 0.00 80 1022.9
20260506023337 80 80 2.0 3.0 0.00 0.00 0.00 80 1022.7
20260506022834 80 88 1.0 3.0 0.00 0.00 0.00 79 1022.8
20260506022332 80 99 0.0 3.0 0.00 0.00 0.00 79 1022.9
20260506021830 80 169 1.0 1.0 0.00 0.00 0.00 78 1022.7
20260506021326 81 162 1.0 2.0 0.00 0.00 0.00 78 1022.4
20260506020822 81 93 2.0 4.0 0.00 0.00 0.00 77 1022.4
20260506020321 81 83 3.0 4.0 0.00 0.00 0.00 77 1022.5
20260506015818 82 83 2.0 3.0 0.00 0.00 0.00 76 1022.3
20260506015315 82 49 1.0 2.0 0.00 0.00 0.00 76 1022.3
20260506014812 82 358 1.0 3.0 0.00 0.00 0.00 75 1022.3
20260506014309 82 161 2.0 3.0 0.00 0.00 0.00 74 1022.4
20260506013806 83 91 1.0 3.0 0.00 0.00 0.00 73 1022.1
20260506013303 83 323 2.0 6.0 0.00 0.00 0.00 71 1022.0
20260506012759 83 94 2.0 3.0 0.00 0.00 0.00 71 1022.1
20260506012256 84 24 1.0 2.0 0.00 0.00 0.00 70 1022.0
20260506011754 84 218 1.0 3.0 0.00 0.00 0.00 69 1022.0
20260506011250 84 69 1.0 1.0 0.00 0.00 0.00 68 1022.0
20260506010748 84 54 0.0 1.0 0.00 0.00 0.00 68 1021.9
20260506010245 85 72 0.0 4.0 0.00 0.00 0.00 67 1021.8
20260506005742 85 77 0.0 2.0 0.00 0.00 0.00 67 1021.7
20260506005239 85 49 0.0 1.0 0.00 0.00 0.00 67 1021.7
20260506004735 85 57 0.0 2.0 0.00 0.00 0.00 66 1021.8
20260506004233 85 80 1.0 1.0 0.00 0.00 0.00 66 1021.8
20260506003728 85 173 2.0 2.0 0.00 0.00 0.00 66 1021.7
20260506003225 86 69 0.0 1.0 0.00 0.00 0.00 66 1021.6
20260506002721 86 101 1.0 3.0 0.00 0.00 0.00 65 1021.6
20260506002217 86 100 1.0 1.0 0.00 0.00 0.00 65 1021.5
20260506001713 86 88 0.0 2.0 0.00 0.00 0.00 65 1021.5
20260506001211 86 68 0.0 1.0 0.00 0.00 0.00 65 1021.5
20260506000708 86 102 1.0 3.0 0.00 0.00 0.00 64 1021.5
20260506000205 86 31 1.0 2.0 0.00 0.00 0.00 64 1021.4
20260505235703 87 114 1.0 3.0 0.00 0.00 0.00 64 1021.5
20260505235200 87 68 1.0 1.0 0.00 0.00 0.00 63 1021.3
20260505234657 87 70 0.0 2.0 0.00 0.00 0.00 63 1021.4
20260505234154 87 67 1.0 3.0 0.00 0.00 0.00 63 1021.2
20260505233650 87 137 2.0 6.0 0.00 0.00 0.00 64 1021.3
20260505233148 87 163 2.0 6.0 0.00 0.00 0.00 63 1021.2
20260505232646 87 242 2.0 10.0 0.00 0.00 0.00 62 1021.1
20260505232143 88 155 2.0 4.0 0.00 0.00 0.00 61 1021.2
20260505231639 88 50 1.0 2.0 0.00 0.00 0.00 62 1021.1
20260505231139 88 59 2.0 7.0 0.00 0.00 0.00 61 1021.1
20260505230636 88 47 1.0 3.0 0.00 0.00 0.00 61 1021.2
20260505230132 90 164 2.0 6.0 0.00 0.00 0.00 59 1021.2
20260505225629 91 127 3.0 4.0 0.00 0.00 0.00 57 1021.2
20260505225125 91 153 4.0 6.0 0.00 0.00 0.00 57 1021.2
20260505224622 91 188 1.0 2.0 0.00 0.00 0.00 56 1021.4
20260505224119 90 37 0.0 1.0 0.00 0.00 0.00 58 1021.2
20260505223616 89 41 0.0 2.0 0.00 0.00 0.00 59 1021.3
20260505223113 90 102 0.0 2.0 0.00 0.00 0.00 57 1021.3
20260505222609 90 135 1.0 2.0 0.00 0.00 0.00 57 1021.4
20260505222105 91 83 1.0 3.0 0.00 0.00 0.00 56 1021.3
20260505221602 91 144 0.0 2.0 0.00 0.00 0.00 55 1021.4
20260505221059 91 105 2.0 6.0 0.00 0.00 0.00 56 1021.4
20260505220556 90 354 1.0 1.0 0.00 0.00 0.00 57 1021.4
20260505220054 89 65 2.0 2.0 0.00 0.00 0.00 58 1021.5
20260505215552 89 142 2.0 3.0 0.00 0.00 0.00 59 1021.5